[[{"header":{"parameterUnit":"m.s-1","parameterCategory":1,"la1":30.2991,"la2":30.254,"lo1":-89.0895,"lo2":-89.0444,"dy":0.0017,"dx":0.0017,"nx":28,"ny":28,"refTime":"2025-01-03T03:00:00:Z","depth":0,"parameterNumber":2,"parameterNumberName":"U-component_of_WINDS"},"data":[0,0,0,0,0,0,0,0,0,0,0,0,0,0,0,0,0,0,0,0,0,0,0,0,0,0,0,0,0,0,0,0,0,0,0,0,0,0,0,0,0,0,0,0,0,0,0,0,0,0,0,0,0,0,0,0,0,0,-5.5534,-5.5534,0,-5.5486,-5.5486,-5.5485,-5.5295,-5.5291,-5.5286,-5.5282,-5.5237,-5.524,-5.5243,0,0,0,0,0,0,0,0,0,0,0,0,0,-5.5467,-5.5469,-5.5534,-5.5534,-5.5533,-5.5486,-5.5485,-5.5485,-5.5296,-5.5291,-5.5285,-5.528,-5.5236,-5.5239,-5.5243,0,0,0,0,0,0,0,0,0,0,0,0,0,-5.5465,-5.547,-5.5535,-5.5433,-5.5424,-5.5486,-5.5485,-5.5485,-5.5297,-5.529,-5.5284,-5.5278,-5.5235,-5.5239,-5.5243,-5.5401,0,0,-5.5257,-5.5258,0,0,0,0,0,0,0,0,-5.5466,-5.5468,-5.5449,-5.544,-5.543,-5.539,-5.5445,-5.5457,-5.5299,-5.5345,-5.5282,-5.5275,-5.5293,-5.5293,-5.5298,-5.5399,-5.5397,-5.5257,-5.526,-5.5261,-5.5263,0,0,0,0,0,0,0,-5.5466,-5.5469,-5.5515,-5.5449,-5.5437,-5.5391,-5.5384,-5.5446,-5.5357,-5.5341,-5.5327,-5.5323,-5.5287,-5.5294,-5.5296,-5.5397,-5.5257,-5.5261,-5.5263,-5.5265,-5.5624,-5.5631,0,0,0,0,0,0,-5.548,-5.547,-5.5517,-5.5514,-5.5432,-5.5398,-5.5389,-5.5409,-5.5356,-5.5341,-5.5329,-5.5315,-5.529,-5.5291,-5.5293,-5.5473,-5.5261,-5.5265,-5.5268,-5.5617,-5.5626,-5.5633,0,0,0,0,0,0,-5.5479,-5.5486,-5.5519,-5.5488,-5.5489,-5.5406,-5.543,-5.5412,-5.5419,-5.5347,-5.533,-5.5353,-5.5285,-5.5287,-5.5375,-5.5469,-5.5267,-5.5271,-5.5609,-5.562,-5.563,-5.5836,0,0,0,0,0,0,-5.5478,-5.5487,-5.5545,-5.5491,-5.5491,-5.5601,-5.5436,-5.5416,-5.5426,-5.5407,-5.5365,-5.5351,-5.528,-5.537,-5.538,-5.5471,-5.5275,-5.56,-5.5614,-5.5626,-5.5821,-5.5852,-5.588,0,0,0,0,0,-5.5476,-5.5606,-5.5549,-5.5556,-5.5562,-5.5607,-5.5607,-5.5521,-5.5435,-5.5493,-5.5447,-5.5353,-5.5458,-5.5381,-5.539,-5.5485,-5.5594,-5.561,-5.5625,-5.5807,-5.5846,-5.5879,0,0,0,0,0,0,-5.5675,-5.5597,-5.5533,-5.5649,-5.5636,-5.5575,-5.5645,-5.5565,-5.5578,-5.5559,-5.5454,-5.5446,-5.5549,-5.5526,-5.5441,-5.5634,-5.551,-5.5528,-5.5645,-5.5682,-5.5711,-5.5714,-5.5278,0,0,0,0,0,-5.5732,-5.5774,-5.5704,-5.5813,-5.581,-5.573,-5.5746,-5.5681,-5.5663,-5.5657,-5.5617,-5.5606,-5.5635,-5.5657,-5.5681,-5.5817,-5.5805,-5.5887,-5.5916,-5.5941,-5.5957,-5.6027,-5.6062,-5.5685,-5.5685,-5.5684,0,0,-5.5851,-5.5814,-5.5847,-5.5852,-5.5834,-5.5881,-5.5726,-5.5782,-5.5815,-5.5666,-5.5746,-5.5717,-5.5697,-5.5809,-5.5857,-5.5793,-5.6059,-5.5961,-5.5981,-5.5984,-5.6047,-5.6082,-5.6114,-5.5695,-5.5693,-5.5692,0,0,-5.609,-5.6067,-5.6154,-5.6139,-5.6114,-5.6059,-5.6081,-5.6032,-5.6006,-5.6085,-5.5974,-5.6013,-5.6067,-5.6057,-5.6059,-5.6295,-5.6209,-5.6306,-5.646,-5.6529,-5.6559,-5.6584,-5.6668,-5.6699,-5.6324,-5.6324,-5.6324,0,-5.6242,-5.6305,-5.621,-5.6272,-5.6278,-5.6144,-5.6233,-5.6223,-5.6208,-5.6216,-5.6144,-5.6209,-5.6186,-5.6293,-5.6351,-5.6358,-5.6379,-5.631,-5.6562,-5.6587,-5.6609,-5.6688,-5.672,-5.6336,-5.6335,-5.6333,-5.6332,0,-5.6492,-5.6538,-5.6612,-5.6598,-5.6613,-5.6689,-5.6606,-5.6632,-5.6567,-5.6521,-5.6602,-5.657,-5.6585,-5.6606,-5.6543,-5.6705,-5.6666,-5.658,-5.6453,-5.6659,-5.6731,-5.676,-5.6353,-5.6349,-5.6345,-5.6342,0,0,-5.6854,-5.6786,-5.6815,-5.6807,-5.6769,-5.6803,-5.6874,-5.6886,-5.691,-5.6905,-5.6961,-5.701,-5.693,-5.6933,-5.6868,-5.6929,-5.7117,-5.6834,-5.6832,-5.6887,-5.7293,-5.7356,-5.7393,-5.706,-5.7066,-5.707,-5.7294,0,-5.7081,-5.7194,-5.7111,-5.7239,-5.728,-5.7154,-5.7215,-5.7199,-5.7158,-5.7189,-5.7144,-5.718,-5.7072,-5.7072,-5.7127,-5.7083,-5.7197,-5.7065,-5.7111,-5.7114,-5.7119,-5.743,-5.7497,-5.771,-5.7322,-5.7326,-5.733,0,-5.736,-5.7365,-5.7497,-5.7449,-5.7464,-5.752,-5.7524,-5.7555,-5.7535,-5.7501,-5.7504,-5.7423,-5.7489,-5.7366,-5.7456,-5.7369,-5.7383,-5.7364,-5.737,-5.737,-5.7233,-5.7437,-5.7776,-5.7808,-5.7373,-5.737,-5.7366,0,-5.7609,-5.7649,-5.7732,-5.773,-5.7677,-5.7719,-5.77,-5.7673,-5.7686,-5.7691,-5.7698,-5.7712,-5.772,-5.7733,-5.7659,-5.7576,-5.7758,-5.7629,-5.7732,-5.7734,-5.7775,-5.7773,-5.812,-5.7788,-5.7787,-5.7787,-5.7786,0,-5.787,-5.7956,-5.7843,-5.7895,-5.7987,-5.7892,-5.7986,-5.7953,-5.7931,-5.7974,-5.7868,-5.7912,-5.7811,-5.7845,-5.7788,-5.787,-5.7875,-5.785,-5.7833,-5.7858,-5.7862,-5.7865,-5.7848,-5.7795,-5.7793,-5.7791,-5.779,0,-5.8163,-5.8092,-5.8174,-5.8117,-5.8105,-5.8176,-5.8127,-5.8173,-5.8125,-5.8182,-5.819,-5.8116,-5.815,-5.8077,-5.8102,-5.8064,-5.8181,-5.8142,-5.8187,-5.8175,-5.8282,-5.8272,-5.8641,-5.8685,-5.8327,-5.8331,-5.8334,0,-5.8333,-5.8395,-5.8345,-5.8366,-5.8351,-5.8387,-5.8399,-5.8308,-5.8325,-5.8307,-5.8356,-5.8381,-5.8395,-5.8457,-5.8406,-5.8424,-5.8384,-5.8512,-5.8386,-5.8409,-5.8384,-5.838,-5.8386,-5.8538,-5.8542,-5.8546,-5.8549,0,-5.8643,-5.8604,-5.8624,-5.8633,-5.865,-5.8653,-5.8649,-5.8672,-5.8576,-5.8601,-5.8633,-5.8645,-5.867,-5.8696,-5.8703,-5.8684,-5.8601,-5.8589,-5.8613,-5.8639,-5.8662,-5.8649,-5.8256,-5.858,-5.8577,-5.8575,-5.8573,-5.8572,-5.8878,-5.8927,-5.8899,-5.8925,-5.8912,-5.891,-5.895,-5.8907,-5.8932,-5.8943,-5.8889,-5.8934,-5.8913,-5.8913,-5.8903,-5.8938,-5.888,-5.8916,-5.8925,-5.8935,-5.8952,-5.8658,-5.8939,-5.8938,-5.8937,-5.8936,-5.8936,0,-5.918,-5.9155,-5.9181,-5.9177,-5.9198,-5.9117,-5.9108,-5.9132,-5.9172,-5.9158,-5.9175,-5.9213,-5.9238,-5.919,-5.9207,-5.9244,-5.9207,-5.9252,-5.9247,-5.9244,-5.9003,-5.8979,-5.9282,-5.9282,-5.9282,-5.9282,-5.9282,-5.9282,-5.9339,-5.9417,-5.9376,-5.9447,-5.9422,-5.9463,-5.9465,-5.9464,-5.9452,-5.9498,-5.9518,-5.9486,-5.9459,-5.9473,-5.9494,-5.9479,-5.949,-5.9548,-5.952,-5.9295,-5.9261,-5.9229,-5.9206,-5.9552,-5.9552,-5.9758,-5.976,-5.9762]},{"header":{"parameterUnit":"m.s-1","parameterCategory":1,"la1":30.2991,"la2":30.254,"lo1":-89.0895,"lo2":-89.0444,"dy":0.0017,"dx":0.0017,"nx":28,"ny":28,"refTime":"2025-01-03T03:00:00:Z","depth":0,"parameterNumber":3,"parameterNumberName":"V-component_of_WINDS"},"data":[0,0,0,0,0,0,0,0,0,0,0,0,0,0,0,0,0,0,0,0,0,0,0,0,0,0,0,0,0,0,0,0,0,0,0,0,0,0,0,0,0,0,0,0,0,0,0,0,0,0,0,0,0,0,0,0,0,0,0.0231,0.0231,0,0.0253,0.0253,0.0254,0.0237,0.0236,0.0235,0.0235,0.0257,0.0259,0.026,0,0,0,0,0,0,0,0,0,0,0,0,0,0.0174,0.0175,0.0231,0.0231,0.0231,0.0253,0.0253,0.0254,0.0237,0.0236,0.0235,0.0234,0.0257,0.0258,0.026,0,0,0,0,0,0,0,0,0,0,0,0,0,0.0198,0.0176,0.0231,0.0225,0.0225,0.0253,0.0253,0.0254,0.0237,0.0236,0.0235,0.0234,0.0256,0.0258,0.026,0.0294,0,0,0.0266,0.0267,0,0,0,0,0,0,0,0,0.0197,0.02,0.0226,0.0226,0.0226,0.0241,0.0242,0.0267,0.0237,0.0233,0.0235,0.0233,0.0253,0.0255,0.0262,0.0295,0.0296,0.0266,0.0268,0.0268,0.0269,0,0,0,0,0,0,0,0.0195,0.0199,0.0239,0.0226,0.0226,0.0222,0.0225,0.0247,0.0249,0.0233,0.0232,0.0235,0.0253,0.026,0.0262,0.0297,0.0266,0.0268,0.0269,0.027,0.0362,0.0363,0,0,0,0,0,0,0.0194,0.0198,0.0239,0.024,0.0208,0.0224,0.0227,0.0237,0.0248,0.0249,0.0236,0.0234,0.0257,0.026,0.0263,0.0305,0.0268,0.027,0.0271,0.0361,0.0362,0.0364,0,0,0,0,0,0,0.0193,0.0198,0.0238,0.0219,0.0223,0.0226,0.0238,0.0238,0.0245,0.025,0.0251,0.0243,0.0256,0.026,0.0287,0.0306,0.0271,0.0273,0.0359,0.0361,0.0363,0.039,0,0,0,0,0,0,0.0191,0.0197,0.021,0.0219,0.0225,0.0262,0.0239,0.0239,0.0249,0.0247,0.0257,0.0258,0.0256,0.0284,0.0289,0.0308,0.0274,0.0358,0.036,0.0362,0.0387,0.0392,0.0397,0,0,0,0,0,0.0189,0.0216,0.0211,0.0216,0.024,0.0263,0.0266,0.0263,0.025,0.0264,0.0267,0.0257,0.0303,0.0287,0.0292,0.0312,0.0356,0.0359,0.0362,0.0385,0.0391,0.0397,0,0,0,0,0,0,0.0208,0.0217,0.0211,0.0242,0.0252,0.026,0.0276,0.0269,0.0283,0.0281,0.0277,0.0279,0.0308,0.0312,0.0295,0.0347,0.0328,0.0332,0.0343,0.0349,0.0354,0.0353,0.0276,0,0,0,0,0,0.0216,0.0233,0.024,0.0266,0.0272,0.0273,0.0283,0.028,0.029,0.0294,0.0299,0.031,0.0327,0.0338,0.0353,0.0387,0.039,0.0403,0.0408,0.0412,0.0416,0.0437,0.0443,0.0373,0.0373,0.0373,0,0,0.0232,0.0239,0.025,0.027,0.0278,0.0297,0.0277,0.0297,0.0311,0.0297,0.0324,0.0328,0.0339,0.0371,0.0385,0.0375,0.0436,0.0416,0.0419,0.0421,0.0441,0.0447,0.0453,0.0375,0.0375,0.0374,0,0,0.0272,0.0278,0.0302,0.031,0.0322,0.0323,0.0329,0.0339,0.0341,0.0368,0.0359,0.0375,0.0404,0.0413,0.0421,0.0466,0.0459,0.0471,0.0497,0.0517,0.0523,0.0528,0.0546,0.0552,0.0475,0.0475,0.0475,0,0.0291,0.0319,0.0315,0.0337,0.0347,0.0335,0.036,0.0368,0.0384,0.0392,0.0381,0.0418,0.0424,0.0459,0.047,0.0477,0.0484,0.0471,0.0522,0.0527,0.0532,0.0549,0.0556,0.0477,0.0477,0.0476,0.0476,0,0.0343,0.0362,0.038,0.0397,0.0409,0.0432,0.0432,0.0445,0.0441,0.0444,0.0472,0.048,0.0498,0.0505,0.0501,0.054,0.0534,0.0523,0.0504,0.054,0.0557,0.0563,0.0479,0.0479,0.0478,0.0478,0,0,0.0396,0.0411,0.0418,0.0427,0.044,0.0455,0.0478,0.0496,0.0508,0.0519,0.054,0.0565,0.0555,0.0565,0.0562,0.0579,0.0617,0.0566,0.0566,0.0577,0.0663,0.0674,0.0681,0.0612,0.0613,0.0614,0.0663,0,0.0438,0.0479,0.0477,0.0515,0.0535,0.0524,0.0545,0.0555,0.0558,0.0576,0.0579,0.0598,0.0582,0.0588,0.0605,0.0609,0.0635,0.0605,0.0632,0.0633,0.0632,0.0689,0.07,0.0746,0.0669,0.067,0.0671,0,0.0493,0.0508,0.0549,0.0561,0.0569,0.0587,0.0605,0.062,0.0633,0.0634,0.0645,0.064,0.0665,0.0644,0.0678,0.0658,0.0669,0.0673,0.0675,0.0679,0.0656,0.0697,0.076,0.0768,0.0681,0.068,0.0679,0,0.0531,0.0561,0.059,0.0597,0.0611,0.0624,0.0631,0.0642,0.0654,0.0669,0.0677,0.0694,0.0704,0.0718,0.0718,0.0703,0.0754,0.0733,0.0757,0.0758,0.077,0.077,0.0838,0.0773,0.0773,0.0773,0.0773,0,0.058,0.0606,0.0607,0.0625,0.0655,0.0652,0.0681,0.0686,0.0696,0.0716,0.0707,0.0726,0.0723,0.0742,0.0742,0.0772,0.0776,0.0779,0.0779,0.0781,0.0781,0.079,0.0787,0.0775,0.0775,0.0774,0.0774,0,0.0628,0.0629,0.0661,0.0672,0.0675,0.0697,0.0706,0.0724,0.0726,0.0751,0.0757,0.0761,0.0783,0.0784,0.0809,0.0809,0.0846,0.0841,0.0843,0.0843,0.0868,0.0867,0.0946,0.0957,0.0883,0.0884,0.0884,0,0.066,0.068,0.0694,0.0706,0.0714,0.0734,0.0746,0.0745,0.0758,0.0774,0.079,0.0811,0.0829,0.0864,0.087,0.0889,0.0887,0.0913,0.0889,0.0892,0.089,0.089,0.0893,0.0918,0.0919,0.092,0.092,0,0.0718,0.0718,0.0736,0.0756,0.0771,0.0785,0.0799,0.081,0.081,0.0825,0.0848,0.0862,0.0888,0.091,0.0929,0.0936,0.0929,0.0927,0.0935,0.0938,0.0939,0.0942,0.0858,0.0926,0.0926,0.0925,0.0925,0.0925,0.0761,0.0779,0.0792,0.0813,0.0824,0.0837,0.0855,0.086,0.0879,0.0901,0.0898,0.0924,0.0937,0.0963,0.0971,0.0992,0.0983,0.0993,0.0996,0.0999,0.1003,0.0934,0.0995,0.0995,0.0995,0.0995,0.0994,0,0.0821,0.0829,0.0848,0.0869,0.0886,0.0877,0.0892,0.0907,0.093,0.0943,0.096,0.0987,0.1009,0.1016,0.1038,0.1053,0.105,0.1059,0.1059,0.1061,0.1008,0.1001,0.1061,0.1061,0.1061,0.1061,0.1061,0.106,0.0854,0.0886,0.0888,0.0924,0.0932,0.0958,0.0968,0.0981,0.0991,0.1022,0.104,0.1045,0.1056,0.1078,0.1098,0.11,0.1109,0.1119,0.112,0.1071,0.1064,0.1058,0.1052,0.1121,0.1121,0.1171,0.1172,0.1172]}]]